CW8690 Weather Reports


time (UTC)temp
F
wind
direction
speed
knots
gust
knots
rain 1hr
in
rain 24hr
in
rain mn
in
humidity
%
barometer
mb
20260504034143 69 111 0.0 0.0 0.00 0.00 0.00 86 1016.5
20260504032657 69 111 0.9 2.6 0.00 0.00 0.00 85 1016.3
20260504031131 69 103 0.9 1.7 0.00 0.00 0.00 85 1016.3
20260504025623 69 103 1.7 2.6 0.00 0.00 0.00 84 1016.3
20260504024124 69 104 1.7 3.5 0.00 0.00 0.00 82 1016.3
20260504022622 70 104 0.9 3.5 0.00 0.00 0.00 82 1016.1
20260504021142 70 104 1.7 2.6 0.00 0.00 0.00 81 1016.0
20260504015620 71 92 0.9 2.6 0.00 0.00 0.00 79 1015.9
20260504014118 71 98 1.7 3.5 0.00 0.00 0.00 78 1016.0
20260504012642 72 87 2.6 5.2 0.00 0.00 0.00 77 1016.1
20260504011134 73 94 2.6 7.8 0.00 0.00 0.00 75 1016.0
20260504005622 73 80 5.2 8.7 0.00 0.00 0.00 74 1016.0
20260504004124 74 91 3.5 10.4 0.00 0.00 0.00 72 1015.8
20260504002645 75 96 4.3 11.3 0.00 0.00 0.00 71 1015.5
20260504001143 75 82 5.2 8.7 0.00 0.00 0.00 70 1015.5
20260503235624 76 88 2.6 11.3 0.00 0.00 0.00 68 1015.6
20260503234121 77 94 5.2 10.4 0.00 0.00 0.00 67 1015.6
20260503232640 77 70 6.1 11.3 0.00 0.00 0.00 66 1015.7
20260503231147 77 69 5.2 11.3 0.00 0.00 0.00 65 1015.9
20260503225626 78 63 7.0 11.3 0.00 0.00 0.00 64 1016.0
20260503224126 78 86 5.2 12.2 0.00 0.00 0.00 65 1016.1
20260503222650 78 117 3.5 12.2 0.00 0.00 0.00 64 1016.2
20260503221128 79 159 3.5 9.6 0.00 0.00 0.00 62 1016.4
20260503215631 79 83 3.5 9.6 0.00 0.00 0.00 60 1016.8
20260503214128 80 57 5.2 12.2 0.00 0.00 0.00 60 1016.7
20260503212651 79 107 6.1 12.2 0.00 0.00 0.00 60 1016.7
20260503211125 79 101 4.3 10.4 0.00 0.00 0.00 58 1016.8
20260503205627 79 94 6.1 12.2 0.00 0.00 0.00 58 1017.2
20260503204125 79 63 2.6 8.7 0.00 0.00 0.00 60 1017.5
20260503202625 79 76 3.5 9.6 0.00 0.00 0.00 58 1017.9
20260503201121 81 110 6.1 13.0 0.00 0.00 0.00 59 1018.2
20260503195617 81 114 7.0 12.2 0.00 0.00 0.00 57 1018.4
20260503194117 80 97 7.0 12.2 0.00 0.00 0.00 58 1018.5
20260503192619 80 26 4.3 12.2 0.00 0.00 0.00 59 1018.6
20260503191137 79 80 6.1 12.2 0.00 0.00 0.00 58 1018.7
20260503185621 80 90 0.9 11.3 0.00 0.00 0.00 62 1019.1
20260503184137 81 104 2.6 11.3 0.00 0.00 0.00 59 1019.2
20260503182619 80 72 3.5 8.7 0.00 0.00 0.00 61 1019.3
20260503181121 79 113 4.3 11.3 0.00 0.00 0.00 60 1019.6
20260503175618 79 82 4.3 8.7 0.00 0.00 0.00 59 1020.0
20260503174158 81 59 4.3 13.0 0.00 0.00 0.00 59 1019.9
20260503171141 80 115 6.1 12.2 0.00 0.00 0.00 61 1020.3
20260503131118 65 310 0.9 2.6 0.00 0.00 0.00 85 1019.5
20260503081119 63 300 0.9 2.6 0.00 0.00 0.00 87 1019.0
20260503072633 63 301 0.9 1.7 0.00 0.00 0.00 87 1019.1
20260503071123 63 301 0.9 2.6 0.00 0.00 0.00 87 1019.1
20260503054123 65 296 0.9 2.6 0.00 0.00 0.00 84 1019.9
20260503052701 65 296 0.9 2.6 0.00 0.00 0.00 84 1019.9
20260503051127 65 297 0.9 4.3 0.00 0.00 0.00 84 1019.8
20260503045645 64 290 0.9 2.6 0.00 0.00 0.00 84 1019.7
20260503044127 65 290 0.0 2.6 0.00 0.00 0.00 83 1019.4
20260503042644 65 290 0.0 1.7 0.00 0.00 0.00 82 1019.5
20260503041133 65 290 1.7 3.5 0.00 0.00 0.00 81 1019.6